This demonstration page uses our WeatherBlox Daily Observations layout. Learn more.

Left ArrowRight Arrow

44.31136, -96.79839

Hourly Observations for June 21, 2019

Temp ( °F °C ) Dew Point ( °F °C ) Humidity (%) Winds ( mph kmh ) Pressure ( in mb ) Visibility ( mi km ) Precip ( " mm )
12:56 am 00:56 Clear 56 13.3 56 13.3 100 100 N 5 7 29.83 1010 10 16 0.00 0.00
1:56 am 01:56 Clear 59 15 57 13.9 93 93 SSE 3 6 29.80 1009 10 16 0.00 0.00
2:56 am 02:56 Clear 58 14.4 57 13.9 97 97 Calm 29.82 1010 10 16 0.00 0.00
3:56 am 03:56 Clear 59 15 57 13.9 93 93 ENE 5 7 29.79 1009 10 16 0.00 0.00
4:56 am 04:56 Clear 60 15.6 58 14.4 93 93 E 7 11 29.75 1008 10 16 0.00 0.00
5:56 am 05:56 Sunny 62 16.7 61 16.1 96 96 ESE 6 9 29.76 1008 8 13 0.00 0.00
6:56 am 06:56 Sunny with Mist and Fog 63 17.2 62 16.7 97 97 ESE 14 22 29.76 1008 6 10 0.00 0.00
7:54 am 07:54 Mostly Cloudy 64 18 63 17 94 94 SE 13 20 29.72 1006 9 14 0.00 0.00
7:56 am 07:56 Mostly Cloudy 64 17.8 62 16.7 93 93 SE 15 24 29.78 1008 9 14 0.00 0.00
8:56 am 08:56 Cloudy 65 18.3 63 17.2 93 93 ESE 8 13 29.79 1009 10 16 0.00 0.00
9:56 am 09:56 Cloudy with Light Rain 65 18.3 63 17.2 93 93 ESE 7 11 29.79 1009 10 16 0.00 0.03
10:54 am 10:54 undefined 66 19 63 17 88 88 ESE 14 22 29.71 1006 10 16 0.00 0.03
10:56 am 10:56 Cloudy 67 19.4 63 17.2 87 87 ESE 14 22 29.78 1008 10 16 0.00 0.03
11:04 am 11:04 undefined 70 21 64 18 83 83 ESE 9 15 29.69 1006 10 16 0.00 0.00
11:39 am 11:39 Partly Cloudy 70 21 63 17 78 78 ESE 14 22 29.69 1006 10 16 0.00 0.00
11:56 am 11:56 Mostly Cloudy 70 21.1 63 17.2 79 79 ESE 16 26 29.78 1009 10 16 0.00 0.00
12:05 pm 12:05 undefined 72 22 63 17 73 73 SE 14 22 29.70 1006 10 16 0.00 0.00
12:56 pm 12:56 Sunny 73 22.8 62 16.7 69 69 ESE 15 24 29.78 1009 10 16 0.00 0.00
1:09 pm 13:09 Mostly Sunny 73 23 63 17 69 69 ESE 14 22 29.69 1005 10 16 0.00 0.00
1:56 pm 13:56 Mostly Sunny 74 23.3 63 17.2 69 69 ESE 20 31 29.78 1009 10 16 0.00 0.00
2:32 pm 14:32 Partly Cloudy 75 24 63 17 65 65 SE 17 28 29.69 1005 10 16 0.00 0.00
2:56 pm 14:56 Mostly Cloudy 76 24.4 63 17.2 64 64 SE 20 31 29.78 1009 10 16 0.00 0.00
3:56 pm 15:56 Cloudy 74 23.3 63 17.2 69 69 SSE 22 35 29.81 1009 10 16 0.00 0.00
4:22 pm 16:22 Cloudy 70 21 63 17 78 78 SSE 18 30 29.74 1007 9 14 0.00 0.00
4:56 pm 16:56 Cloudy 70 21.1 62 16.7 76 76 SSE 17 28 29.83 1010 10 16 0.00 0.00
5:33 pm 17:33 Cloudy 70 21 63 17 78 78 SSE 16 26 N/A 10 16 0.00 0.00
5:56 pm 17:56 Cloudy 69 20.6 62 16.7 78 78 SE 18 30 29.83 1010 10 16 0.00 0.00
6:56 pm 18:56 Cloudy 67 19.4 62 16.7 84 84 SE 18 30 29.85 1011 10 16 0.00 0.00
7:47 pm 19:47 Cloudy 66 19 63 17 88 88 ESE 16 26 29.80 1009 10 16 0.00 0.03
7:56 pm 19:56 Cloudy 65 18.3 62 16.7 90 90 ESE 15 24 29.86 1011 10 16 0.00 0.03
8:40 pm 20:40 Cloudy 64 18 63 17 94 94 SE 16 26 29.80 1009 10 16 0.00 0.00
8:56 pm 20:56 Cloudy 66 18.9 61 16.1 84 84 SE 17 28 29.88 1012 10 16 0.00 0.00
9:56 pm 21:56 Cloudy with Light Rain 65 18.3 61 16.1 87 87 SE 21 33 29.92 1013 10 16 0.00 0.03
10:17 pm 22:17 Mostly Cloudy with Light Rain 64 18 61 16 88 88 SE 13 20 29.85 1011 10 16 0.00 0.03
10:56 pm 22:56 Mostly Cloudy 64 17.8 60 15.6 87 87 SE 17 28 29.93 1014 10 16 0.00 0.03
11:31 pm 23:31 Cloudy 63 17 61 16 94 94 SE 12 19 29.88 1012 10 16 0.00 0.00
11:39 pm 23:39 Cloudy 63 17 61 16 94 94 SE 12 19 29.88 1012 10 16 0.00 0.00
11:56 pm 23:56 Cloudy 63 17.2 60 15.6 90 90 SE 9 15 29.93 1014 10 16 0.00 0.00

Powered by AerisWeather